AirNav   Everest Fuels
 
 479 users online  

MU61 Belton Regional Medical Center Heliport
Belton, Missouri, USA

GOING TO BELTON?


FAA INFORMATION EFFECTIVE 07 OCTOBER 2021

Location

FAA Identifier: MU61
Lat/Long: 38-48-59.9300N 094-30-12.8900W
38-48.998833N 094-30.214833W
38.8166472,-94.5035806
(estimated)
Elevation: 1070 ft. / 326 m (estimated)
Variation: 05E (1980)
From city: 5 miles E of BELTON, MO
Time zone: UTC -5 (UTC -6 during Standard Time)
Zip code: 64012

Heliport Operations

Heliport use: Private use, MEDICAL.
Activation date: 10/1986
Control tower: no
ARTCC: KANSAS CITY CENTER
FSS: COLUMBIA FLIGHT SERVICE STATION
Attendance: UNATNDD
Wind indicator: yes
Segmented circle: no
Lights: FOR PERIMETER LGTS CALL 816-348-1200.

Heliport Communications

WX ASOS at LXT (11 nm NE): 124.175 (816-347-9807)
WX ASOS at OJC (11 nm W): PHONE 913-780-6969
WX AWOS-3PT at LRY (14 nm SE): 119.975 (816-380-5936)
WX ASOS at IXD (18 nm W): 135.325 (913-780-6987)
WX ASOS at MKC (19 nm N): PHONE 816-329-2843

Nearby radio navigation aids

VOR radial/distance  VOR name  Freq  Var
ANXr219/24.2NAPOLEON VORTAC114.0007E
MCIr154/30.1KANSAS CITY VORTAC113.2505E
BUMr352/32.7BUTLER VORTAC115.9007E

 
NDB name  Hdg/Dist  Freq  Var  ID
HERBB067/11.642004EPK .--. -.-

Heliport Services

Runway Information

Helipad H1

Dimensions: 40 x 40 ft. / 12 x 12 m
Surface: concrete
Runway edge lights: PERI
Latitude: 38-48.998833N
Longitude: 094-30.214833W
Elevation: 1070.0 ft.
Traffic pattern: leftleft

Heliport Ownership and Management from official FAA records

Ownership: Privately-owned
Owner: BELTON REGIONAL MEDICAL CENTER
17065 SOUTH 71 HWY
BELTON, MO 64012
Phone 816-348-1200
Manager: DAVID ROBINSON
17065 SOUTH 71 HWY
BELTON, MO 64012
Phone 816-348-1200

Additional Remarks

FOR CD CTC KANSAS CITY APCH AT 816-329-2710.

Instrument Procedures

There are no published instrument procedures at MU61.

Some nearby airports with instrument procedures:

KLXT - Lee's Summit Municipal Airport (11 nm NE)
KOJC - Johnson County Executive Airport (11 nm W)
KLRY - Lawrence Smith Memorial Airport (14 nm SE)
3GV - East Kansas City Airport (18 nm NE)
KIXD - New Century AirCenter Airport (18 nm W)
KMKC - Charles B Wheeler Downtown Airport (19 nm N)
 
Loc | Ops | Rwys | IFR | FBO | Links
Com | Nav | Svcs | Stats | Notes
Area around MU61 (Belton Regional Medical Center Heliport)
 
Road maps at: MapQuest Bing Google
 
Aerial photo
No photo
 
Sectional chart

 
Airport distance calculator
Flying to Belton Regional Medical Center Heliport? Find the distance to fly.

From to MU61

Sunrise and sunset
Times for 25-Oct-2021
 Local
(UTC-5)
 Zulu
(UTC)
Morning civil twilight07:1112:11
Sunrise07:3912:39
Sunset18:2623:26
Evening civil twilight18:5323:53

Current date and time
Zulu (UTC)  25-Oct-2021 10:35:40
Local (UTC-5)  25-Oct-2021 05:35:40
 
METAR
KOJC 
11nm W 
250953Z AUTO 35010KT 10SM OVC012 09/06 A2996 RMK AO2 SLP142 T00890056
KLXT 
11nm NE 
250953Z AUTO 33011KT 10SM OVC016 08/06 A2995 RMK AO2 SLP142 T00830056 $
KLRY 
14nm SE 
251015Z AUTO 33009KT 10SM OVC015 10/06 A2999 RMK AO2
KIXD 
18nm W 
250953Z AUTO 33012KT 10SM OVC012 08/05 A2997 RMK AO2 PK WND 33027/0859 SLP147 T00830050
KMKC 
19nm N 
250954Z 34009KT 10SM OVC018 09/05 A2995 RMK AO2 SLP141 T00890050
TAF
KIXD 
18nm W 
250520Z 2506/2606 32012G18KT P6SM OVC015 FM251500 01008KT P6SM SCT040 FM260000 09006KT P6SM FEW250
KMKC 
19nm N 
250520Z 2506/2606 33012G18KT P6SM OVC015 FM251600 01008KT P6SM SCT040 FM260000 09006KT P6SM FEW250
NOTAMs
Click for the latest NOTAMs
NOTAMs are issued by the DoD/FAA and will open in a separate window not controlled by AirNav.

 

 
 

Would you like to see your business listed on this page?

 If your business provides an interesting product or service to pilots, flight crews, aircraft, or users of the Belton Regional Medical Center Heliport, you should consider listing it here.  To start the listing process, click on the button below
 
Add a business
 

Other Pages about Belton Regional Medical Center Heliport

Update a link
 
Copyright © AirNav, LLC. All rights reserved. Privacy Policy  Contact